This is the latest recevied weather packets stored in our database for station/object KB2KMM. If no packets are shown the sender has not sent any weather packets the latest 10 day(s).
| Time | Temp. | Humidity | Pressure | Rain* | Wind** | Luminosity | Snow |
|---|---|---|---|---|---|---|---|
| 1778139306 | 11.67° C | 100% | 1008.6 hPa | 5.59 mm | - | - | - |
| 1778139006 | 11.67° C | 100% | 1008.8 hPa | 5.59 mm | - | - | - |
| 1778138706 | 12.22° C | 100% | 1008.7 hPa | 5.59 mm | - | - | - |
| 1778138406 | 12.22° C | 100% | 1008.8 hPa | 5.59 mm | - | - | - |
| 1778138105 | 12.22° C | 100% | 1008.8 hPa | 5.84 mm | - | - | - |
| 1778137805 | 12.22° C | 100% | 1008.5 hPa | 5.59 mm | - | - | - |
| 1778137506 | 12.22° C | 100% | 1008.4 hPa | 5.33 mm | - | - | - |
| 1778137205 | 12.22° C | 100% | 1008.3 hPa | 4.83 mm | - | - | - |
| 1778136905 | 12.78° C | 100% | 1009 hPa | 3.81 mm | - | - | - |
| 1778136606 | 12.78° C | 100% | 1009.3 hPa | 0.76 mm | - | - | - |
| 1778136305 | 12.78° C | 100% | 1007.8 hPa | 0.25 mm | - | - | - |
| 1778136006 | 12.78° C | 100% | 1008 hPa | 0.25 mm | - | - | - |
| 1778135705 | 12.78° C | 100% | 1008.2 hPa | 0.25 mm | - | - | - |
| 1778135406 | 12.78° C | 100% | 1008.2 hPa | 0.25 mm | - | - | - |
| 1778135106 | 12.78° C | 100% | 1007.3 hPa | 0.25 mm | - | - | - |
| 1778134807 | 12.78° C | 100% | 1008.3 hPa | 0.25 mm | - | - | - |
| 1778134505 | 12.78° C | 100% | 1008.4 hPa | 0 mm | - | - | - |
| 1778134205 | 12.78° C | 100% | 1008.3 hPa | 0 mm | - | - | - |
| 1778133905 | 12.78° C | 100% | 1007.8 hPa | 0 mm | - | - | - |
| 1778133605 | 12.78° C | 100% | 1007.9 hPa | 0 mm | - | - | - |
| 1778133305 | 12.78° C | 100% | 1008 hPa | 0 mm | - | - | - |
| 1778133006 | 12.78° C | 100% | 1007.7 hPa | 0 mm | - | - | - |
| 1778132705 | 12.78° C | 100% | 1007.7 hPa | 0 mm | - | - | - |
| 1778132407 | 12.78° C | 100% | 1007.4 hPa | 0 mm | - | - | - |
| 1778132106 | 12.78° C | 100% | 1007.6 hPa | 0 mm | - | - | - |
* Rain latest hour (hover to see other rain measurements)
** Current wind speed in m/s (hover to see current wind gust speed)